Forside
METAR-TAF:

METAR-TAF

Lufthavne :

Minocqua / Woodruff, Wisconsin, USA

Breddekreds: 45-56N, længdekreds: 089-44W, højde: 496 m

Aktuelle vejr

Denne rapport blev lavet for 18 minutter siden, kl. 00:35 UTC
Vind 8 kt fra nordnordvest
Temperatur 14°C
Fugtighed 63%
Tryk 1012 hPa
Sigt: 16.1 km
Spredte skyer i en højde af 7500 ft

METAR: KARV 220035Z AUTO 33008KT 10SM SCT075 14/07 A2987 RMK AO2 T01380065

Tid: 19:53 (00:53 UTC)


TAF: fraværende

Vejrobservationer og prognoser fra mere end 4000 lufthavne (METAR og TAF).

De gule og røde prikker repræsenterer de meteorologiske stationer.

Flyt musen over at se navnet på stationen.

Så klik over at se vejr observationer og prognoser.

At skifte det kort: Klik på de grønne knapper med et sort kors for at zoome ind; på den grønne knap med en bindestreg for at zoome ud; eller på de grønne pile for tilstødende kort.


METAR-TAF: